Theta_e
324 324 323 323 323 323 323 323 322 321 321 322 321 323 324 324 324 323 314 322 325 347 341 328 326 325 326 324 332 334 326 317 318 319 322 331 329 336 339 334 336 339 339 346 351
324 324 323 323 322 323 323 323 323 321 321 320 321 323 323 324 323 317 330 340 343 345 323 323 322 324 326 324 332 327 322 318 324 325 324 328 330 333 333 332 334 338 345 350 350
323 323 322 322 322 322 322 322 322 321 320 319 320 323 324 326 320 320 346 341 348 337 324 323 324 324 321 324 325 325 319 322 324 326 328 327 330 333 330 328 333 336 343 348 346
323 322 322 321 322 322 322 322 321 319 319 320 321 323 324 326 309 324 353 346 352 330 323 323 324 321 320 318 321 320 322 321 324 326 327 326 332 330 332 332 337 341 346 348 347
322 321 321 321 321 321 321 321 319 318 318 320 322 324 325 317 317 331 345 347 326 324 322 323 322 321 318 318 320 320 321 321 322 323 324 330 329 329 331 336 340 343 345 346 346
321 321 321 321 320 320 320 319 317 317 317 320 323 324 322 313 326 331 330 325 323 323 322 323 322 321 319 318 319 320 320 320 322 325 328 326 328 330 332 338 340 341 342 344 344
321 321 320 320 319 319 318 317 316 316 318 321 323 326 315 315 326 327 322 321 325 323 322 324 324 321 321 318 321 320 316 318 320 327 327 329 322 325 335 339 339 339 341 342 344
320 320 320 319 318 318 316 315 316 319 319 322 325 324 312 318 328 325 325 321 322 323 323 325 324 322 321 321 320 317 316 311 316 321 325 328 315 325 335 335 337 338 339 341 343
320 319 319 318 318 317 315 315 319 320 323 325 325 321 312 324 320 327 327 320 320 322 323 320 323 322 322 317 315 314 309 309 312 318 321 322 316 320 326 334 335 338 339 340 342
319 318 318 317 316 315 313 314 319 324 326 326 323 317 320 317 322 326 327 324 319 319 320 320 323 319 319 315 308 308 307 310 309 314 316 315 318 323 325 327 331 337 339 341 340
318 317 317 316 315 313 315 325 322 320 324 318 316 316 318 323 321 320 324 322 321 320 316 320 316 314 315 314 312 310 309 309 311 314 315 318 321 323 326 328 330 334 338 340 341
317 317 316 315 313 312 318 320 319 320 315 319 318 318 320 321 313 318 323 316 315 312 318 316 312 317 313 311 310 311 309 310 312 313 313 318 321 325 328 328 328 329 332 336 339
317 316 315 313 312 316 319 320 325 324 316 316 318 318 319 321 313 315 319 316 312 311 312 312 313 313 310 310 310 312 309 309 308 312 313 311 317 323 328 330 331 333 332 332 333
316 316 313 311 313 319 322 324 325 323 313 311 314 317 320 320 312 320 320 316 312 310 312 313 317 312 310 310 312 308 312 309 309 309 306 311 307 319 324 325 328 333 335 334 335
316 314 311 309 317 318 323 324 325 321 301 312 314 324 321 315 315 314 320 316 310 310 311 308 309 309 309 311 312 310 313 311 310 310 308 310 311 317 323 321 324 330 336 338 339
314 312 311 315 318 321 322 323 322 309 301 311 315 313 313 314 314 315 315 318 317 311 311 311 314 312 312 313 313 314 312 313 312 309 304 310 311 313 317 320 323 328 334 339 341
311 310 310 317 320 322 323 321 309 303 313 311 312 313 312 311 311 312 311 310 309 305 306 310 311 314 314 311 314 312 310 304 301 302 302 312 313 314 320 323 324 326 331 338 342
309 307 312 318 325 321 322 316 303 308 312 316 315 313 309 312 311 310 310 308 312 311 311 308 305 313 315 314 312 312 311 306 297 302 303 311 310 315 323 325 328 329 331 334 339
308 321 322 325 323 322 318 307 308 311 314 313 314 311 309 311 311 311 310 310 312 313 309 309 309 316 315 315 315 312 310 314 305 307 304 310 316 321 324 324 325 327 329 330 334
318 325 324 324 323 321 314 303 310 314 315 315 311 314 309 309 310 310 311 314 312 314 316 313 309 315 316 318 316 314 315 309 309 301 300 306 311 314 318 320 323 324 327 329 332
320 322 321 324 323 318 308 309 311 315 315 314 313 312 313 310 311 311 311 314 316 315 316 314 312 313 316 314 314 315 314 314 312 310 303 302 309 322 320 320 320 323 326 329 331
321 317 324 324 314 317 310 311 304 313 318 316 316 316 315 314 311 311 311 314 316 317 311 315 313 309 311 315 318 317 315 315 308 306 312 308 310 322 322 321 321 322 325 327 330
324 322 324 322 309 309 313 311 313 313 316 315 315 317 318 316 313 314 314 315 318 317 314 316 313 308 308 313 315 314 316 315 314 313 309 305 310 322 322 321 322 321 323 325 326
323 315 318 319 319 313 310 310 310 316 315 316 317 319 317 316 319 314 313 314 317 319 319 320 315 312 306 310 314 311 313 315 313 308 309 309 315 319 319 319 319 319 321 322 324
322 318 317 312 313 314 314 314 311 312 316 317 316 316 316 313 314 314 316 315 314 313 317 318 312 314 313 312 313 313 311 311 311 312 307 310 310 319 319 318 318 319 320 321 322
316 316 321 320 315 316 309 315 313 313 314 314 315 314 317 315 316 313 316 318 316 315 317 316 313 315 310 312 312 310 311 311 311 311 311 310 310 320 318 320 318 318 320 320 322
321 322 318 308 313 314 315 314 313 315 314 316 316 316 314 312 315 316 317 316 317 316 313 314 314 311 308 310 309 306 311 312 312 313 310 306 314 318 315 316 318 319 319 318 321
Wind_Speed
14 14 14 14 14 14 14 13 12 13 12 12 13 13 13 13 18 7 8 2 3 6 7 5 7 4 5 1 2 1 3 8 8 9 7 2 2 3 2 6 2 3 3 16 21
15 15 15 15 15 15 14 14 13 12 12 12 13 13 12 11 10 9 3 2 7 7 8 5 1 2 2 2 2 4 3 8 5 7 8 2 2 3 4 5 5 7 11 21 21
15 16 16 16 16 15 15 15 14 13 11 11 12 12 11 13 7 6 5 6 7 8 6 3 4 4 1 0 3 2 6 7 6 7 6 3 1 3 2 3 3 9 15 19 19
16 16 16 17 17 16 16 16 15 14 11 11 12 11 10 7 3 6 4 8 8 7 5 3 4 2 2 4 3 3 3 6 7 5 6 4 3 1 2 5 5 11 16 18 20
16 16 16 17 17 17 17 16 16 14 11 11 10 9 8 7 4 8 1 10 10 7 6 2 3 5 5 5 2 4 8 8 9 10 5 1 1 1 3 5 9 14 16 18 18
16 16 16 16 17 18 18 17 16 12 9 9 9 9 7 5 4 4 9 13 8 8 4 3 4 6 4 4 6 9 9 7 7 6 2 4 1 5 5 9 13 14 16 17 16
17 17 17 16 18 19 19 18 15 11 8 7 7 6 7 7 2 5 8 6 6 5 5 2 1 7 6 4 6 7 6 6 11 6 4 6 5 2 10 12 14 15 14 15 15
17 18 18 18 19 19 19 18 14 9 6 6 7 6 2 4 3 5 5 6 5 3 3 1 2 5 5 7 6 6 3 4 8 8 5 6 15 17 6 8 15 16 15 15 16
18 18 18 19 18 18 18 15 8 3 4 6 7 6 8 7 7 7 7 6 9 6 3 2 5 5 7 9 8 3 7 6 6 5 3 4 15 18 5 6 8 10 11 13 13
18 18 18 19 18 17 18 7 2 6 6 5 4 7 6 5 6 7 6 7 9 10 7 7 7 11 9 8 5 7 7 6 6 6 7 11 13 17 12 2 4 8 10 11 13
18 19 19 19 19 18 12 5 8 8 7 7 4 4 5 5 4 8 9 9 9 13 13 8 10 11 4 5 5 5 7 7 2 6 6 11 14 16 16 15 4 5 9 11 12
19 19 19 20 20 15 7 5 6 6 5 4 5 6 4 2 8 11 8 11 11 14 13 8 13 3 1 2 6 6 7 4 4 6 1 10 16 14 16 14 11 9 7 7 11
18 19 20 21 21 6 5 2 2 7 7 6 2 4 6 8 9 14 13 4 11 13 14 16 7 6 4 7 8 10 8 6 5 3 4 4 12 16 13 16 14 12 8 5 7
18 18 20 25 8 4 2 3 7 5 7 8 9 6 8 5 8 8 7 4 6 12 6 10 6 7 9 10 8 13 4 3 3 7 4 4 8 16 13 17 18 16 14 10 8
18 18 14 9 11 5 6 5 2 6 7 8 8 5 4 7 11 10 5 6 6 9 9 6 9 11 12 10 3 10 4 4 5 8 7 3 1 11 11 16 19 18 18 16 12
18 15 14 5 5 6 5 4 6 8 4 8 8 12 13 8 7 8 10 6 2 5 8 6 2 6 10 4 9 4 10 12 8 7 6 5 5 12 10 15 16 18 19 19 18
19 15 8 5 2 4 5 6 8 8 4 9 10 13 15 10 7 12 12 12 8 10 10 10 12 7 8 12 10 11 14 7 8 8 7 4 7 7 9 11 14 16 18 19 18
21 19 9 5 3 6 6 8 7 3 3 4 7 13 12 11 8 9 11 11 7 7 4 9 11 3 8 9 4 10 10 4 4 3 11 3 9 8 9 10 12 14 16 17 18
24 5 4 3 6 5 8 9 1 3 2 6 10 13 10 13 5 10 11 10 7 13 5 7 8 7 3 3 7 8 6 8 1 3 7 8 10 8 7 10 12 14 16 18 18
5 4 4 2 7 7 8 6 1 1 2 5 10 12 13 16 10 10 10 5 6 7 13 2 7 2 6 4 5 7 3 7 5 4 6 9 10 9 5 7 10 13 15 16 17
6 5 6 6 5 7 9 4 3 2 3 4 5 7 8 11 14 12 12 7 1 3 10 7 8 11 7 2 5 6 9 2 6 6 8 6 8 7 7 6 8 11 12 14 14
5 4 5 4 7 3 7 4 1 4 3 4 4 2 8 11 10 10 9 3 1 4 6 8 7 8 4 5 2 2 2 9 8 4 1 9 7 8 8 7 7 9 10 11 12
3 3 5 5 5 7 4 8 4 5 1 2 4 3 3 7 5 4 6 3 2 7 4 9 7 8 9 11 7 6 2 3 7 6 10 8 8 8 7 5 5 6 7 7 8
5 5 5 5 2 6 4 7 8 3 4 1 0 3 8 7 2 8 8 5 4 2 3 3 4 7 6 5 4 6 6 3 8 9 7 7 13 10 6 2 2 5 5 6 7
2 3 6 5 8 6 4 1 7 7 4 4 4 4 4 5 6 6 6 9 5 6 4 7 5 2 4 2 2 2 4 4 8 6 9 8 6 10 4 1 3 3 5 6 7
6 5 2 0 3 6 6 7 8 6 4 7 5 5 2 5 6 6 5 2 2 5 3 4 2 6 5 3 4 4 3 3 3 4 3 4 4 5 4 1 3 5 9 11 9
3 2 5 4 5 7 5 2 5 5 5 5 5 9 11 9 7 6 5 4 4 2 4 5 6 7 8 5 3 8 11 7 1 4 5 7 8 4 3 3 5 10 12 13 12
Wind_Direction
349 345 344 342 337 336 331 328 327 325 322 320 318 316 318 321 298 216 243 86 153 126 206 182 210 209 240 199 273 335 239 53 27 6 11 65 281 72 76 127 100 107 59 120 152
347 344 342 338 338 334 329 326 325 325 321 319 312 312 315 321 282 248 103 124 222 230 216 226 216 283 177 95 104 305 10 20 348 348 340 34 294 131 178 131 125 118 107 127 143
344 342 340 338 335 332 329 326 325 324 323 313 304 308 309 303 256 99 44 201 179 214 257 292 281 302 313 289 88 74 14 358 350 331 331 27 201 174 263 144 125 155 144 145 155
341 337 336 334 332 331 327 324 323 322 317 306 300 305 306 256 162 73 22 194 214 256 242 244 278 338 314 34 51 289 7 345 324 342 305 339 95 141 248 70 91 138 153 154 167
337 333 330 331 329 328 326 323 322 317 309 297 297 304 273 215 76 38 90 153 188 205 234 273 346 346 12 351 298 282 344 340 330 298 273 108 182 346 192 144 130 137 157 165 173
332 328 328 329 328 328 326 324 319 311 299 290 290 296 255 211 26 55 122 157 183 206 188 239 29 354 300 322 325 333 314 332 357 5 78 265 126 234 116 160 141 151 165 168 174
330 328 329 329 328 327 326 322 315 302 279 273 274 271 253 53 28 122 164 183 180 235 196 122 15 298 340 304 347 303 312 125 32 23 37 307 209 162 137 157 155 162 170 170 175
329 329 328 328 328 325 324 317 302 289 250 239 248 251 327 126 112 197 195 168 189 207 275 128 279 291 305 318 227 301 211 64 50 10 32 286 56 35 128 179 173 169 172 180 181
328 328 327 326 326 325 324 318 297 181 182 190 222 259 129 132 210 178 207 197 174 187 197 257 246 304 263 283 263 169 8 24 97 30 29 350 13 3 354 203 181 181 184 187 186
327 327 325 325 326 326 320 284 5 186 197 219 261 235 183 158 130 155 181 179 174 168 177 215 234 262 240 283 349 16 340 346 4 41 37 47 41 19 10 182 201 172 201 205 197
327 327 325 325 325 325 301 208 208 179 210 315 36 325 128 111 179 185 172 182 181 196 209 202 253 235 325 345 323 312 310 306 351 80 79 66 50 39 34 33 52 183 201 213 221
326 327 326 326 324 318 263 277 43 2 288 202 255 265 230 282 164 165 186 202 200 208 213 203 232 260 359 273 274 276 285 285 290 94 259 81 68 56 52 45 44 25 338 253 228
327 328 330 326 321 266 305 21 36 326 256 142 180 208 172 206 172 164 200 197 208 206 208 228 100 97 196 277 247 241 288 350 337 340 154 207 75 50 58 55 42 40 11 322 283
327 329 333 325 287 348 202 117 301 258 253 129 175 145 171 230 160 141 209 230 198 219 200 236 247 231 250 262 269 277 70 306 286 292 18 317 113 47 33 43 39 28 28 15 348
325 329 331 330 322 243 63 318 284 226 217 141 142 108 157 225 119 176 163 210 197 176 219 139 198 212 236 256 239 299 337 312 303 284 259 96 190 39 35 21 25 24 24 23 18
323 327 326 204 226 289 294 297 224 228 139 149 142 178 182 194 161 131 188 228 3 190 220 277 147 262 258 274 239 310 265 243 244 241 176 16 267 54 22 8 11 19 22 22 20
323 310 284 294 7 344 289 212 228 262 139 152 175 176 192 173 156 178 183 190 199 195 203 196 223 229 242 251 230 239 244 243 196 191 54 89 68 52 44 30 21 21 25 24 25
319 313 172 251 285 296 227 219 248 58 173 131 167 173 190 165 163 175 178 195 199 275 180 195 165 226 160 248 308 208 307 302 203 220 113 178 136 99 84 55 41 37 35 30 30
310 182 196 172 214 239 229 220 251 161 82 166 167 173 186 177 193 189 208 207 209 204 259 182 109 112 100 206 280 149 239 14 249 176 235 106 101 153 100 62 45 39 36 35 31
295 230 80 38 177 225 231 259 206 324 321 221 209 202 182 186 199 210 176 173 198 224 245 96 162 111 123 204 91 306 14 235 230 194 245 154 166 96 111 52 46 43 38 37 38
240 214 67 134 218 219 227 212 265 209 248 241 215 186 198 176 205 192 172 122 171 141 233 233 270 136 198 341 3 179 204 200 308 309 317 232 119 96 103 70 55 50 42 37 33
288 199 137 250 212 236 227 217 26 257 187 235 270 268 179 164 189 202 191 40 31 225 195 212 251 239 57 120 8 297 11 271 315 138 160 305 81 120 110 89 57 53 40 34 38
296 86 161 265 234 206 180 238 262 261 206 225 187 275 209 163 148 181 154 88 180 194 187 182 228 177 182 184 189 233 135 297 290 291 284 307 92 130 126 116 75 36 27 34 15
272 180 148 220 300 290 215 216 219 200 242 255 129 183 164 156 159 158 143 101 127 147 309 222 254 315 9 39 346 187 204 246 278 288 330 283 120 166 153 138 59 24 15 18 19
277 64 0 181 206 236 246 269 217 182 214 211 163 238 165 141 142 136 141 140 139 139 207 249 235 200 35 72 241 226 196 242 258 329 288 349 280 140 154 55 16 5 3 339 352
325 321 197 276 215 231 164 203 227 146 260 165 207 143 167 94 11 144 147 240 91 155 195 212 162 176 151 179 199 215 205 238 245 260 286 260 158 102 134 226 296 343 345 332 324
17 235 283 134 205 226 167 155 176 170 86 61 111 124 97 70 55 56 48 79 84 292 164 241 160 213 244 168 222 237 212 228 235 259 296 227 66 131 209 294 334 327 328 324 327